Location: Vassar Physics Lab
(41.6843°N, 73.8954°W)
Time: 14:52:56
(UTC-04:00)

Daily predictions for brighter satellites

Satellite Brightness Start Highest point End
(mag) Time Altitude Azimuth Time Altitude Azimuth Time Altitude Azimuth
Lacrosse 5 2.2 19:52:14 10° NW 19:57:12 53° NE 20:02:09 10° ESE
Iridium 4 Rocket 4.1 19:53:16 10° NNE 19:57:33 29° E 20:01:30 10° SE
Cosmos 2227 Rocket 2.4 19:53:22 10° NNW 19:59:03 78° WSW 20:04:41 10° SSE
Spot 2 Rocket 3.8 19:57:22 10° S 20:02:27 75° WSW 20:07:33 10° NNW
Cosmos 1500 4.1 20:02:13 10° SSE 20:05:26 27° E 20:08:42 10° NNE
SL-24 R/B - RUBIN 2 4.4 20:01:41 10° SSW 20:07:31 80° ESE 20:14:03 10° NE
Cosmos 1975 3.0 20:04:13 10° S 20:08:11 51° E 20:12:11 10° NNE
CZ-2D R/B 3.5 20:06:16 10° SSE 20:10:00 50° ENE 20:13:48 10° N
Lacrosse 5 rocket 2.5 20:06:37 10° WNW 20:10:03 34° SW 20:13:21 10° SSE
Cosmos 2084 3.3 20:06:13 10° NW 20:10:17 82° NE 20:14:35 10° SE
Cosmos 1340 4.5 20:08:18 10° NNE 20:10:34 15° ENE 20:12:38 11° ESE
Cosmos 1937 Rocket 4.1 20:07:36 10° N 20:12:34 40° ENE 20:17:33 10° SE
Envisat 4.4 20:09:36 10° ESE 20:13:13 20° ENE 20:16:50 10° NNE
Cosmos 2297 Rocket 2.3 20:08:05 10° NNW 20:13:46 82° WSW 20:19:25 10° SSE
FengYun 1-2 T 4.4 20:10:15 10° SSE 20:15:53 83° WSW 20:21:31 10° NNW
Cosmos 2082 4.3 20:10:59 10° NNW 20:16:31 59° WSW 20:22:01 10° S
Cosmos 1605 Rocket 4.0 20:11:56 10° S 20:18:17 86° E 20:24:33 10° N
H-2A R/B 4.0 20:17:53 10° E 20:19:39 13° ENE 20:21:25 10° NE
Cosmos 2298 Rocket 4.0 20:15:36 10° NNW 20:20:56 72° ENE 20:26:15 10° SSE
Cosmos 1626 Rocket 3.5 20:16:45 10° N 20:21:10 77° E 20:25:30 10° SSE
BREEZE-M DEB (TANK) 4.2 20:18:07 10° NW 20:21:11 40° NNE 20:29:06 11° E
Cosmos 220 Rocket 4.2 20:18:37 10° NNW 20:22:49 72° WSW 20:27:00 10° S
USA 186 1.6 20:22:12 10° SSE 20:25:07 55° ENE 20:27:50 10° N
Cosmos 1455 Rocket 4.2 20:21:48 10° SSW 20:25:58 47° WNW 20:30:12 10° N
ALOS 2.3 20:21:33 10° SSE 20:26:13 90° ENE 20:30:55 10° NNW
Cosmos 1515 3.6 20:26:01 10° N 20:29:51 70° E 20:33:39 10° SSE
Cosmos 2100 Rocket 4.3 20:24:01 10° SSE 20:29:56 46° E 20:35:49 10° NNE
OAO 2 Rocket 4.1 20:25:30 10° WSW 20:30:06 38° S 20:33:36 16° ESE
Cosmos 1602 Rocket 3.7 20:27:22 10° N 20:31:51 81° W 20:36:14 10° S
CZ-4 DEB 3.8 20:30:36 19° ESE 20:32:00 27° ENE 20:34:43 10° NNE
ERS-1 Rocket 3.6 20:28:47 13° SE 20:32:44 37° ENE 20:37:20 10° N
Meteor 1-12 Rocket 4.5 20:30:19 10° SSW 20:36:04 78° W 20:41:59 10° N
Cosmos 1763 Rocket 3.7 20:40:01 10° S 20:44:51 44° ESE 20:49:38 10° NNE
Cosmos 2150 Rocket 4.1 20:40:42 10° NNW 20:45:52 79° WSW 20:51:02 10° SSE
Cosmos 2061 Rocket 4.1 20:40:06 10° SSE 20:46:13 56° E 20:52:17 10° NNE
Cosmos 1697 Rocket 2.8 20:41:36 10° SSW 20:47:15 83° WNW 20:52:56 10° NNE
Tiangong 1 1.4 20:45:33 10° W 20:48:35 52° SSW 20:49:40 32° SE
Cosmos 1939 Rocket 3.5 20:47:21 24° SE 20:49:20 39° ENE 20:53:15 10° N
Cosmos 1743 2.8 20:45:58 10° S 20:49:46 53° E 20:53:36 10° NNE
Cosmos 1459 Rocket 3.9 20:47:24 10° S 20:53:22 66° E 20:59:26 10° NNE
Cosmos 1066 Rocket 4.3 20:48:35 10° N 20:54:19 87° W 21:00:08 10° S
Cosmos 1898 Rocket 4.0 20:50:56 10° NNW 20:56:10 61° WSW 21:01:18 10° S
SL-16 R/B 3.0 21:00:04 26° SE 21:01:23 28° ESE 21:06:09 10° NE
Cosmos 1125 Rocket 4.3 20:57:35 10° N 21:02:18 33° ENE 21:03:59 27° E
Cosmos 1606 Rocket 3.6 21:01:24 16° S 21:04:45 58° E 21:09:07 10° NNE
Cosmos 2058 Rocket 3.7 21:03:44 32° ESE 21:04:45 37° E 21:08:54 10° NNE
Cosmos 2098 Rocket 4.2 21:02:47 14° SSE 21:08:11 46° E 21:13:26 10° NNE
BREEZE-M DEB (TANK) 3.9 20:51:47 10° WSW 21:08:27 82° SSE 21:12:09 18° ENE
Cosmos 841 Rocket 3.4 21:04:51 10° S 21:10:02 67° ESE 21:15:13 10° NNE
ASTEX 1 3.9 21:06:35 10° NNE 21:11:17 39° E 21:12:21 35° ESE
Cosmos 1980 Rocket 2.2 21:06:01 10° SSW 21:11:42 86° WNW 21:17:26 10° NNE
RESURS DK-1 3.4 21:11:43 10° NW 21:15:39 42° WSW 21:18:10 19° S
Cosmos 1726 Rocket 3.4 21:24:43 28° S 21:26:59 87° E 21:31:25 10° N
Cosmos 1842 3.1 21:23:56 10° N 21:27:49 65° E 21:27:49 65° E
Cosmos 1666 2.5 21:29:44 72° ENE 21:29:44 72° ENE 21:33:24 10° NNE
YAOGAN 6 3.5 21:30:59 37° NE 21:30:59 37° NE 21:33:47 10° N
SL-08 R/B 4.4 21:29:48 15° S 21:35:03 83° E 21:41:13 10° N
Cosmos 2263 Rocket 2.9 21:30:46 10° N 21:35:52 35° ENE 21:36:35 34° ENE
Cosmos 332 Rocket 4.4 21:37:52 39° ENE 21:37:52 39° ENE 21:41:27 10° NNE
Lacrosse 5 3.4 21:35:40 10° WNW 21:39:55 28° WSW 21:41:56 21° SSW
Cosmos 1802 Rocket 4.4 21:33:37 10° SSW 21:39:57 65° W 21:46:23 10° N
Cosmos 2016 Rocket 4.2 21:38:36 10° SSW 21:44:42 70° W 21:50:55 10° N
SL-19 R/B 4.5 21:40:32 10° NNE 21:45:06 45° ENE 21:45:06 45° ENE
Cosmos 1340 4.1 21:42:58 10° NNW 21:46:27 34° W 21:47:32 28° SW
Cosmos 2322 Rocket 2.0 21:43:34 29° S 21:46:28 73° ESE 21:52:05 10° NNE
SPOT 5 2.8 21:47:47 64° SSE 21:48:33 89° WSW 21:53:19 10° NNW
Envisat 3.6 21:49:38 31° SSW 21:51:49 52° W 21:56:48 10° NNW
MetOp-A 4.0 21:52:04 60° SSE 21:53:06 90° ENE 21:58:30 10° NNW
H-2A R/B 2.3 21:55:01 59° WSW 21:55:08 60° WSW 21:59:16 10° NNW
Cosmos 2228 3.2 21:55:49 65° N 21:55:49 65° N 21:59:31 10° N
Nimbus 7 Rocket 4.5 21:50:41 10° NNE 21:56:46 80° WNW 22:01:08 20° SSW
Meteor 2-9 Rocket 4.3 21:57:29 29° SSW 22:00:20 69° W 22:05:43 10° N
Cosmos 1375 Rocket 4.5 21:55:25 10° SSW 22:02:00 88° WNW 22:08:38 10° NNE
Terra 3.4 22:03:43 23° NE 22:03:43 23° NE 22:06:22 10° N
Meteor 2-5 Rocket 4.1 21:57:07 10° N 22:02:35 49° ENE 22:02:35 49° ENE
Meteor 1-15 Rocket 4.4 22:02:12 32° SSW 22:05:00 73° W 22:10:53 10° N
USA 245 4.4 22:06:08 63° SSE 22:07:15 87° ENE 22:13:34 10° NNW
Cosmos 405 Rocket 4.5 22:13:59 10° NNW 22:15:52 28° NNW 22:15:52 28° NNW
BREEZE-M DEB (TANK) 4.1 22:16:10 10° WNW 22:17:23 27° W 22:17:23 27° W
Cosmos 2346 Rocket 4.3 22:13:21 10° N 22:19:34 75° E 22:19:34 75° E
H-2A R/B 2.9 22:25:29 40° NNE 22:25:29 40° NNE 22:28:52 10° N
Meteor 2-17 Rocket 4.4 22:24:21 67° SW 22:25:06 77° W 22:31:11 10° N
BREEZE-M DEB (TANK) 3.9 22:12:51 10° SW 22:25:18 87° SSE 22:25:52 74° ENE
Cosmos 2278 Rocket 4.4 22:26:57 10° NNE 22:29:24 13° NE 22:29:36 13° NE
USA 215 3.7 22:37:03 46° ENE 22:38:00 50° NNE 22:44:16 10° NW
ARGOS 3.6 22:39:04 57° WNW 22:39:04 57° WNW 22:43:58 10° NNW
SPOT 1/Viking Rocket 4.4 22:44:09 46° W 22:44:09 46° W 22:48:41 10° NNW
SL-16 R/B 3.3 22:41:43 20° WSW 22:45:16 42° WNW 22:50:39 10° NNE
Cosmos 1844 Rocket 4.1 22:41:58 10° N 22:45:36 27° NNE 22:45:36 27° NNE
Cosmos 2360 Rocket 3.4 22:58:32 35° NNE 22:58:32 35° NNE 23:01:44 10° NNE
Cosmos 2263 Rocket 3.7 23:14:46 10° NW 23:18:16 29° WNW 23:18:16 29° WNW
Terra 4.2 23:42:37 20° NW 23:42:37 20° NW 23:44:19 10° NNW
ATLAS 3B R/B 4.3 23:52:25 26° NE 23:52:25 26° NE 23:55:30 10° NE
